Regional Weather Roundup
Issued by NWS

Home | Current Version | Previous Version | Graphics & Text | Print | Product List | Glossary On
Versions: 1 2 3 4 5 6 7 8 9 10 11 12 13 14 15 16 17 18 19 20 21 22 23 24 25 26 27 28 29 30 31 32 33 34 35 36 37 38 39 40 41 42 43 44 45 46 47 48 49 50
000
ASUS45 KCYS 232210
RWRWY

WYOMING REGIONAL WEATHER ROUNDUP
NATIONAL WEATHER SERVICE CHEYENNE WY
400 PM MDT WED JUL 23 2014

NOTE:  "FAIR" INDICATES FEW OR NO CLOUDS BELOW 12,000 FEET
WITH NO SIGNIFICANT WEATHER AND/OR OBSTRUCTIONS TO VISIBILITY.

WYZ001-232300-
YELLOWSTONE NATIONAL PARK

CITY           SKY/WX    TMP DP  RH WIND       PRES   REMARKS
LK YELLOWSTONE   N/A     79  30  16 SW8       30.39F
W YELLOWSTONE  NOT AVBL

$$
WYZ002>013-054>058-071-098>099-232300-
NORTHERN WYOMING

CITY           SKY/WX    TMP DP  RH WIND       PRES   REMARKS
JACKSON        SUNNY     90  32  12 S13       30.23F
CODY           NOT AVBL
GREYBULL       MOSUNNY  101  40  12 S7        29.98F HX  96
WORLAND        MOSUNNY  103  29   7 SW12G18   29.99F HX  96
SHERIDAN       SUNNY     95  60  31 SE12      30.01F HX  95
BUFFALO        SUNNY     96  52  22 E12       30.10F HX  93
GILLETTE       SUNNY     94  58  29 SE18      30.09F HX  93
HULETT         FAIR      88  63  42 MISG      30.14
NEWCASTLE      FAIR      90  48  24 SE25G31   30.15

$$
WYZ014>020-022>026-101>103-232300-
CENTRAL WYOMING

CITY           SKY/WX    TMP DP  RH WIND       PRES   REMARKS
BIG PINEY      MOSUNNY   90  31  12 W8G18     30.30F
PINEDALE       PTCLDY    88  32  13 W15G23    30.31F
DUBOIS         FAIR      86  32  14 W12G23    30.28F
LANDER         SUNNY     97  33  10 VRB6      30.12F HX  91
RIVERTON       SUNNY     93  45  19 VRB5      30.13F
CASPER         MOSUNNY   96  33  11 SW7       30.12F HX  91
DOUGLAS        SUNNY     93  60  33 SE20G28   30.14F HX  93

$$
WYZ021-027>030-104>119-232300-
SOUTHERN WYOMING

CITY           SKY/WX    TMP DP  RH WIND       PRES   REMARKS
EVANSTON       SUNNY     91  38  15 S20G30    30.30F
KEMMERER       PTCLDY    90  32  12 SW23G30   30.32F
FORT BRIDGER   FAIR      93  34  12 SW21G31   30.32F
ROCK SPRINGS   NOT AVBL
DIXON          FAIR      94  29  10 SW8       30.30F
RAWLINS        MOSUNNY   95  19   6 SW21G29   30.29F
SARATOGA       FAIR      91  28  10 SW10G18   30.32F
LARAMIE        PTSUNNY   80  51  36 S20       30.38R
CHEYENNE       SUNNY     81  61  50 S21G33    30.32F
TORRINGTON     SUNNY     91  62  37 SE12G22   30.14F HX  91
PINE BLUFFS    FAIR      88  63  42 S16G23    30.25F

$$



USA.gov is the U.S. government's official web portal to all federal, state and local government web resources and services.